www.pogodaiklimat.ru

Погода и климат >> Архив погоды >> Россия >> Чукотка >> Илирней


ПОГОДА в Илирнее

  • Прогноз погоды в Илирнее
  • Монитор погоды в Илирнее
  • Климат города

АРХИВ ПОГОДЫ в Илирнее

Время (UTC), дата Ветер
(напр.,м/с)
 
Видим.   Явления Облачность Т
(С)
Тd
(С)
f
(%)
Тe
(С)
Тes
(С)
Комфортность P
(гПа)
Po
(гПа)
Тmin
(С)
Tmax
(С)
R
(мм)
R24
(мм)
S
(см)
09 18.04 В 3
{8}
50 км {метель} 10/0
[Ac und]
-2.7 -5.7 80 -8 -8 1020.6 976.2 -0.4
12 18.04 штиль 0
{4}
20 км 10/0
[Ac und]
-4.7 -6.7 86 -6 -6 1022.6 977.8
15 18.04 В 1
{4}
20 км 10/0
[Ac und]
-4.0 -7.0 80 -6 -6 1024.0 979.1
18 18.04 В 1
{4}
50 км 10/0
[Ac und]
-4.6 -7.3 81 -7 -7 1025.3 980.4
21 18.04 В 1
{4}
50 км 4/0
[Ac trans]
-1.2 -7.5 62 -3 0 1026.4 981.9 -4.8 20
00 19.04 В 3
{5}
50 км ясно -1.4 -7.4 64 -6 0 1027.7 983.1
03 19.04 В 5
{7}
50 км позёмок {метель} 8/0
[Ac trans]
-1.1 -6.5 67 -7 -5 1028.4 983.8
06 19.04 В 5
{8}
50 км позёмок {метель} 10/0
[Ac und]
-2.6 -6.7 73 -9 -9 1028.5 983.8
09 19.04 В 6
{9}
50 км позёмок {метель} 10/0
[Ac und]
-4.3 -8.1 75 -12 -12 1029.0 983.9 -0.9
12 19.04 В 5
{9}
20 км позёмок {метель} 10/0
[Ac und]
-4.7 -7.5 81 -12 -12 1028.7 983.5
15 19.04 В 5
{8}
20 км позёмок {метель} 10/0
[Ac und]
-4.4 -6.7 84 -11 -11 1027.5 982.5
18 19.04 В 3
{6}
50 км {метель} 10/0
[Ac und]
-4.2 -6.5 84 -10 -9 1027.2 982.2
21 19.04 штиль 0
{4}
50 км 10/0
[Ac und]
-3.6 -8.0 71 -4 -3 1026.7 981.9 -4.8 20
00 20.04 В 2
{6}
50 км 10/0
[Ac und]
-1.9 -6.1 73 -6 -3 1026.1 981.5
03 20.04 В 3
{5}
50 км в посл. час снег 10/0
[Ac und]
-1.3 -4.2 81 -6 -5 1025.5 981.0
06 20.04 СВ 3
{5}
50 км {снег} 10/6 600 м
[Sc Ac As]
+0.1 -3.3 78 -4 -4 1022.5 980.5
09 20.04 В 1
{5}
50 км 10/3 600 м
[Sc Ac As]
-0.6 -2.7 86 -3 -3 1025.0 980.8 +0.1 0.2
12 20.04 штиль 0
{4}
20 км 10/0
[Ac und]
-1.5 -2.6 92 -3 -3 1025.2 980.8
15 20.04 штиль 0
{3}
20 км 10/0
[Ac und]
-3.2 -4.6 90 -4 -4 1025.1 980.4
18 20.04 штиль 0
{1}
50 км 10/0
[Ac und]
-2.7 -4.6 87 -4 -4 1024.7 980.2
21 20.04 штиль 0
{1}
50 км 10/0
[Ac und]
+0.9 -3.0 75 0 +2 1024.5 980.5 -3.2 20
00 21.04 В 4
{5}
50 км 10/0
[Ac und]
+1.9 -2.8 71 -3 -1 1023.9 980.0
03 21.04 В 3
{5}
50 км 10/0
[Ac und]
+2.9 -2.9 66 -1 +1 1023.7 980.0
06 21.04 СВ 2
{6}
50 км 8/0
[Ac trans]
+2.5 -2.4 70 -0 +1 1024.0 980.3
09 21.04 штиль 0
{5}
50 км 8/0
[Ac trans]
-0.2 -3.2 80 -1 -1 1024.9 980.7 +3.4
12 21.04 штиль 0
{2}
20 км 4/0
[Ac trans]
-8.8 -10.3 89 -9 -9 1027.0 981.2
15 21.04 штиль 0
{1}
20 км 10/0
[Ac und]
-7.2 -8.9 88 -8 -8 1026.7 981.2
18 21.04 штиль 0
{1}
50 км 10/0
[Ac und]
-6.0 -7.9 86 -7 -7 1026.4 981.1
21 21.04 В 2
{3}
50 км слабый снег 10/0
[As op]
-3.2 -4.6 90 -7 -7 1025.5 980.8 -8.8 0.0 20
00 22.04 СВ 1
{4}
50 км {снег} 10/0
[Ac und]
-2.3 -4.8 83 -4 -2 1024.9 980.4
03 22.04 В 1
{4}
50 км 3/0
[Ac trans]
-0.9 -4.8 75 -3 +3 1024.2 979.8
06 22.04 СВ 1
{4}
50 км ясно -0.1 -5.1 69 -2 +1 1023.8 979.6
09 22.04 штиль 0
{4}
50 км ясно -2.3 -5.5 79 -3 -3 1024.4 979.9 -0.1 0.0
12 22.04 штиль 0
{2}
20 км ясно -9.5 -10.2 95 -10 -10 1026.3 980.6
15 22.04 штиль 0
{2}
20 км ясно -11.3 -12.6 90 -11 -11 1026.7 980.6
18 22.04 штиль 0
{1}
50 км ясно -10.7 -13.0 83 -11 -10 1027.3 981.1
21 22.04 штиль 0
{1}
50 км ясно -8.0 -11.6 75 -9 -3 1026.8 981.1 -11.3 20
00 23.04 штиль 0
{3}
50 км 8/0
[Ac trans]
-3.6 -5.8 85 -5 +1 1025.2 980.5
03 23.04 Ю 1
{2}
50 км 10/0
[Ac und]
-1.0 -5.3 73 -3 -1 1024.4 980.0
06 23.04 штиль 0
{2}
50 км 10/0
[Ac und]
+0.4 -4.3 71 -0 0 1023.7 979.7
09 23.04 штиль 0
{1}
50 км 10/0
[Ac und]
-0.4 -4.1 76 -1 -1 1024.2 980.0 +0.8
12 23.04 штиль 0
{2}
20 км 10/0
[Ac und]
-1.4 -3.1 88 -3 -3 1024.2 979.8
15 23.04 штиль 0
{2}
20 км 10/0
[Ac und]
-2.0 -3.8 87 -3 -3 1023.4 979.0
18 23.04 СВ 1
{5}
50 км 4/0
[Ac trans]
-5.0 -8.2 78 -7 -7 1024.1 979.1
21 23.04 ЮВ 1
{3}
50 км ясно -1.5 -9.2 56 -3 +2 1023.1 978.8 -5.3 20
00 24.04 З 2
{6}
50 км 1/0
[Ac trans]
+1.5 -11.1 39 -1 +6 1021.8 978.0
03 24.04 СЗ 3
{7}
50 км ясно +2.0 -8.2 47 -2 +4 1021.0 977.2
06 24.04 СЗ 3
{8}
50 км ясно -1.7 -6.4 70 -6 -5 1020.1 976.4
09 24.04 СЗ 3
{6}
50 км 4/0
[Ci]
-2.1 -8.0 64 -7 -7 1020.5 976.1 +2.0
12 24.04 С 1
{4}
20 км 1/0
[Ci]
-10.5 -12.5 85 -13 -13 1020.7 975.0
15 24.04 В 1
{2}
20 км ясно -15.3 -16.6 90 -18 -18 1022.1 975.5
18 24.04 ЮВ 1
{1}
50 км ясно -15.5 -17.4 85 -18 -17 1021.8 975.2
21 24.04 Ю 1
{2}
50 км ясно -7.7 -13.7 62 -10 -5 1019.5 974.2 -15.5 20
00 25.04 С 2
{3}
50 км ясно -4.5 -12.1 55 -8 -0 1018.0 973.4
03 25.04 штиль 0
{3}
50 км ясно -2.2 -11.9 47 -3 +6 1016.4 972.2

 

Местоположение метеостанции Илирней (Чукотка, Россия): широта 67.25 долгота 167.90 высота над уровнем моря 354 м.

В архиве по умолчанию представлена погода в Илирнее за последнюю неделю. Архивные данные за месяц целиком и за предыдущие месяцы, начиная с января 2011 года, Вы можете получить, выбрав интересующий диапазон дат из раскрывающегося списка и нажав кнопку "Ввод!".

Внимание! Время в таблицах - всемирное. Для получения местного времени необходимо прибавить поправку, которая в Илирнее равна 12 ч.

Смотрите также архив погоды в соседних городах и на ближайших метеорологических станциях:

Погода в Билибино (Чукотка, Россия) (109 км)
Погода в Баимке (Чукотка, Россия) (180 км)
Погода на Островном (Чукотка, Россия) (187 км)
Погода в Чауне (Чукотка, Россия) (215 км)
Погода в Эньмувееме (Чукотка, Россия) (255 км)
Погода в Раучуе (Чукотка, Россия) (257 км)
Погода в Майской (Чукотка, Россия) (276 км)
Погода в Певеке (Чукотка, Россия) (288 км)
Погода в 21 км (Чукотка, Россия) (290 км)
Погода в Комсомольской (Чукотка, Россия) (291 км)

Пояснения к столбцам:

Ветер - указаны скорость ветра в м/с - средняя за 10 мин, порывы в срок и между сроками (в фигурных скобках) и направление, откуда дует ветер: С - северный, СВ - северо-восточный, В - восточный, ЮВ - юго-восточный, Ю - южный, ЮЗ - юго-западный, З - западный, СЗ - северо-западный.
Видимость - горизонтальная дальность видимости в метрах или километрах. При видимости от 1 до 10 км при отсутствии осадков обычно наблюдается дымка, при ухудшении видимости до 1 км и менее - туман. В сухую погоду видимость может ухудшаться дымом, пылью или мглою.
Явления - указаны атмосферные явления, наблюдавшиеся в срок или в последний час перед сроком; фигурными скобками обозначены явления, наблюдавшиеся между сроками (за 1-3 часа до срока); квадратными скобками обозначены град или гололедные отложения с указанием их диаметра в мм.
Облачность - указаны через наклонную черту общая и нижняя облачность в баллах и высота нижней границы облаков в метрах; квадратными скобками обозначены формы облаков: Ci - перистые, Cs - перисто-слоистые, Cc - перисто-кучевые, Ac - высококучевые, As - высокослоистые, Sc - слоисто-кучевые, Ns - слоисто-дождевые, Cu - кучевые, Cb - кучево-дождевые. Подробнее классификацию облаков см. в Атласе облаков (PDF).
T - Температура воздуха - температура, измеренная на высоте 2 м над землей.
Td - Температура точки росы - температура, при понижении до которой содержащийся в воздухе водяной пар достигнет насыщения.
f - Относительная влажность воздуха - влажноcть воздуха, измеренная на высоте 2 м над землей.
Te - Эффективная температура - температура, которую ощущает одетый по сезону человек в тени. Характеристика душности погоды. При расчете учитывается влияние влажности воздуха и скорости ветра на теплоощущения человека.
Tes - Эффективная температура на солнце - температура, которую ощущает человек, с поправкой на солнечный нагрев. Характеристика знойности погоды. Зависит от высоты солнца над горизонтом, облачности и скорости ветра. Ночью, в пасмурную погоду, а также при ветре 12 м/с и более поправка равна нулю.
P - Атмосферное давление - приведенное к уровню моря атмосферное давление.
Po - Атмосферное давление - измеренное на уровне метеостанции атмосферное давление.
Tmin - Минимальная температура - минимум температуры воздуха на высоте 2 м над землей.
Tmax - Максимальная температура - максимум температуры воздуха на высоте 2 м над землей.
R - Количество осадков - Количество выпавших осадков за период времени, мм. При наведении курсора мыши на число - период времени, за который выпало указанное количество осадков.
R24 - Количество осадков - Количество выпавших осадков за 24 часа, мм.
S - Снежный покров - Высота снежного покрова, см. При наведении курсора мыши на число - состояние снежного покрова и степень покрытия местности в баллах.